Location: Austin
(30.3000°N, 97.7500°W)
Time: 05:37:02
(UTC-05:00)

Cosmos 1461 - Pass Details

Date: 16 June 2025
Orbit: 445 x 542 km, 65.0° (Epoch: 07 July)

Event Time Altitude Azimuth Distance (km) Brightness Sun altitude
Rises 05:41:32 0° 339° (NNW) 2,705 6.5 -9.6°
Reaches altitude 10° 05:43:48 10° 345° (NNW) 1,812 5.7 -9.2°
Maximum altitude 05:47:46 50° 61° (ENE) 698 3.9 -8.5°
Drops below altitude 10° 05:51:41 10° 137° (SE) 1,789 5.6 -7.8°
Sets 05:53:54 0° 143° (SE) 2,666 6.4 -7.4°
